STARLINK-2257 (47787 NORAD) Tracking and Keplerian Element Data

This shows tracking and keplerian element data for the satellite.

Feedback or suggestion? Click here.




ElementValue
Catalog47787
NameSTARLINK-2257
Epoch Orbit1666
Epoch Day170.14563652
Epoch Year2021
RAAN73.3861
Inclination53.0568
Eccentricity0.0002192
Argument of Perigee82.3692
Mean Anonmoly277.7545
Mean Motion15.06400317
Decay Rate-1.007E-05
L11 47787U 21018A 21170.14563652 -.00001007 00000-0 -48676-4 0 9993
L22 47787 53.0568 73.3861 0002192 82.3692 277.7545 15.06400317 16667

Live tracking and technical data element details for STARLINK-2257 (NORAD 47787). STARLINK-2257 can be tracked NOW for your location showing map with azimuth and elevation plus other details from your city location.

Track the satellite on the map from your city or location and see movement details for azimuth, elevation, latitude, longitude, range, height, and movement on the map or in text.







IsCatalogInMostPopularTable: catalog: 47787, numindb: 42
Update: records affected: 1



GetName: 47787 STARLINK-2257

Hit Count: updated at: Mon, 21 Jun 2021 04:43:05 GMT